CO3D 2

Last updated on Sat Oct 25 2025 00:02:33 GMT+0000 (Coordinated Universal Time)

1 64902U 25156D 25297.17975204 .00002714 00000+0 12842-3 0 9993 2 64902 97.4351 14.1568 0000748 245.9630 114.1527 15.20210372 13676
UTC large
Height (km)
Speed (km/s)
/
Latitude / Longitude
Inclination (degrees)
Orbital Period (minutes)
Azimuth
Elevation
Range (km)
Doppler Factor

Next 0 passes for location: London (51.5072 / 0.1276)

Sorry there are no passes over London.